Skip Page Navigation
NASA JPL Caltech
NASA Logo - Jet Propulsion Laboratory + View the NASA Portal
+ Near-Earth Object (NEO) Program
Search JPL
JPL Home Earth Solar System Stars & Galaxies Technology
JPL Solar System Dynamics
BODIES ORBITS EPHEMERIDES TOOLS PHYSICAL DATA DISCOVERY FAQ SITE MAP
JPL Small-Body Database Browser
Search: [ help ]  
(2006 WJ3)
Classification: Apollo [NEO, PHA]          SPK-ID: 3359278
Ephemeris | Orbit Diagram | Orbital Elements | Physical Parameters | Close-Approach Data ]

[ hide orbit diagram ]
Orbit Diagram
Note: Make sure you have Java enabled on your browser to see the applet. This applet is provided as a 3D orbit visualization tool. The applet was implemented using 2-body methods, and hence should not be used for determining accurate long-term trajectories (over several years or decades) or planetary encounter circumstances. For accurate long-term ephemerides, please instead use our Horizons system.
Orbit Viewer

Additional Notes: the orbits shown in the applet are color coded. The planets are white lines, and the asteroid/comet is a blue line. The bright white line indicates the portion of the orbit that is above the ecliptic plane, and the darker portion is below the ecliptic plane. Likewise for the asteroid/comet orbit, the light blue indicates the portion above the ecliptic plane, and the dark blue the portion below the ecliptic plane.

Orbit Viewer applet originally written and kindly provided by Osamu Ajiki (AstroArts), and further modified by Ron Baalke (JPL).


Orbital Elements at Epoch 2456400.5 (2013-Apr-18.0) TDB
Reference: JPL 19 (heliocentric ecliptic J2000)
 Element Value Uncertainty (1-sigma)   Units 
e .4243822285876765 4.5945e-08  
a 1.752398570231111 1.5379e-07 AU
q 1.008711759622574 5.7283e-08 AU
i 15.36004193616034 2.1658e-05 deg
node 232.6304933103515 1.1798e-05 deg
peri 178.4265603407212 6.0615e-05 deg
M 275.099505109707 0.00014782 deg
tp 2456600.327604950332
(2013-Nov-03.82760495)
0.00037412 JED
period 847.3205942447865
2.32
0.00011154
3.054e-07
d
yr
n .4248687007553104 5.5928e-08 deg/d
Q 2.496085380839648 2.1905e-07 AU
  Orbit Determination Parameters
   # obs. used (total)      126  
   data-arc span      1984 days (5.43 yr)  
   first obs. used      2006-11-19  
   last obs. used      2012-04-25  
   planetary ephem.      DE405  
   SB-pert. ephem.      SB405-CPV-2  
   condition code      1  
   fit RMS      .71859  
   data source      ORB  
   producer      Otto Matic  
   solution date      2012-Apr-30 05:50:06  

Additional Information
 Earth MOID = .0193566 AU 
 T_jup = 3.983 
[ show covariance matrix ]

Ephemeris | Orbit Diagram | Orbital Elements | Physical Parameters | Close-Approach Data ]

Physical Parameter Table
Parameter Symbol Value Units Sigma Reference Notes
absolute magnitude H 19.938 mag .43883 19 autocmod 2.5b

[ show close-approach data ]
Ephemeris | Orbit Diagram | Orbital Elements | Physical Parameters | Close-Approach Data ]
ABOUT SSD CREDITS/AWARDS PRIVACY/COPYRIGHT GLOSSARY LINKS
FirstGov 2013-May-21 07:07 UT
(server date/time)  
NASA Home Page
Site Manager:   Donald K. Yeomans
Webmaster  Alan B. Chamberlin